Tracking 28052 objects as of 25-Sep-2023
HD Live streaming from Space Station
objects crossing your sky now

STARLINK-3508

Track STARLINK-3508 now!
10-day predictions
STARLINK-3508 is classified as:


NORAD ID: 51862
Int'l Code: 2022-022L
Perigee: 546.1 km
Apogee: 547.7 km
Inclination: 53.2 °
Period: 95.4 minutes
Semi major axis: 6917 km
RCS: Unknown
Launch date: March 3, 2022
Source: United States (US)
Launch site: AIR FORCE EASTERN TEST RANGE (AFETR)
Your satellite tracking list
Your tracking list is empty




NASA's NSSDC Master Catalog

Two Line Element Set (TLE):
1 51862U 22022L   23268.43039500 -.00000452  00000-0 -10298-4 0  9992
2 51862  53.2191  72.5837 0001201  90.3921 269.7209 15.08836321 87866
Source of the keplerian elements: AFSPC